EW0352 Weather Reports


Display with metric or nautical units.
time (UTC)temp
F
wind
direction
speed
MPH
gust
MPH
rain 1hr
in
rain 24hr
in
rain mn
in
humidity
%
barometer
mb
20260502223205 66 252 4.0 12.0 0.00 0.00 0.00 33 1012.1
20260502222705 65 251 1.0 5.0 0.00 0.00 0.00 35 1012.1
20260502222205 65 247 3.0 7.0 0.00 0.00 0.00 34 1012.2
20260502221706 65 253 3.0 7.0 0.00 0.00 0.00 35 1012.2
20260502221205 65 221 5.0 12.0 0.00 0.00 0.00 33 1012.2
20260502220705 65 252 2.0 12.0 0.00 0.00 0.00 35 1012.3
20260502220207 65 254 1.0 12.0 0.00 0.00 0.00 35 1012.4
20260502215705 65 175 5.0 12.0 0.00 0.00 0.00 34 1012.6
20260502215206 65 284 5.0 12.0 0.00 0.00 0.00 34 1012.6
20260502214205 65 244 4.0 9.0 0.00 0.00 0.00 34 1012.7
20260502213706 66 260 6.0 12.0 0.00 0.00 0.00 32 1012.8
20260502212706 67 261 6.0 12.0 0.00 0.00 0.00 32 1012.9
20260502212206 68 223 5.0 10.0 0.00 0.00 0.00 33 1013.0
20260502211705 67 263 5.0 9.0 0.00 0.00 0.00 35 1013.0
20260502211205 66 279 4.0 10.0 0.00 0.00 0.00 35 1013.2
20260502210206 66 231 4.0 12.0 0.00 0.00 0.00 33 1013.3
20260502205705 66 290 6.0 17.0 0.00 0.00 0.00 34 1013.5
20260502205205 66 200 6.0 13.0 0.00 0.00 0.00 34 1013.6
20260502203205 66 263 5.0 9.0 0.00 0.00 0.00 34 1014.0
20260502202706 66 225 5.0 13.0 0.00 0.00 0.00 35 1014.1
20260502201706 65 218 6.0 10.0 0.00 0.00 0.00 35 1014.4
20260502201206 65 141 2.0 8.0 0.00 0.00 0.00 37 1014.4
20260502200706 65 250 7.0 16.0 0.00 0.00 0.00 36 1014.7
20260502200205 65 201 9.0 23.0 0.00 0.00 0.00 35 1014.7
20260502195705 65 257 4.0 12.0 0.00 0.00 0.00 35 1014.8
20260502195206 65 250 4.0 8.0 0.00 0.00 0.00 36 1015.0
20260502194205 64 264 3.0 10.0 0.00 0.00 0.00 36 1015.1
20260502193707 64 255 4.0 10.0 0.00 0.00 0.00 36 1015.2
20260502193206 63 263 4.0 12.0 0.00 0.00 0.00 35 1015.3
20260502192206 62 178 8.0 14.0 0.00 0.00 0.00 37 1015.5
20260502191706 62 233 5.0 12.0 0.00 0.00 0.00 37 1015.7
20260502191206 62 189 6.0 10.0 0.00 0.00 0.00 36 1015.8
20260502190206 62 217 5.0 15.0 0.00 0.00 0.00 36 1016.0
20260502185205 62 219 3.0 9.0 0.00 0.00 0.00 35 1016.2
20260502184706 61 213 2.0 12.0 0.00 0.00 0.00 39 1016.2
20260502184206 61 211 3.0 7.0 0.00 0.00 0.00 35 1016.4
20260502183705 61 261 6.0 16.0 0.00 0.00 0.00 36 1016.6
20260502183206 61 257 3.0 9.0 0.00 0.00 0.00 37 1016.6
20260502182706 60 257 7.0 12.0 0.00 0.00 0.00 39 1016.7
20260502182206 60 269 5.0 10.0 0.00 0.00 0.00 36 1016.8
20260502181206 60 182 6.0 12.0 0.00 0.00 0.00 37 1016.8
20260502180706 60 197 5.0 12.0 0.00 0.00 0.00 38 1017.0
20260502180206 60 297 3.0 7.0 0.00 0.00 0.00 38 1017.1
20260502170206 58 258 5.0 10.0 0.00 0.00 0.00 38 1018.1
20260502164206 57 267 5.0 12.0 0.00 0.00 0.00 41 1018.4
20260502163706 57 269 2.0 13.0 0.00 0.00 0.00 38 1018.5
20260502161706 56 256 6.0 13.0 0.00 0.00 0.00 41 1018.8
20260502161206 56 247 3.0 12.0 0.00 0.00 0.00 42 1018.8
20260502160707 56 224 5.0 8.0 0.00 0.00 0.00 41 1018.9
20260502160206 56 222 3.0 12.0 0.00 0.00 0.00 44 1018.9
20260502152206 55 247 4.0 10.0 0.00 0.00 0.00 44 1019.3
20260502151206 55 275 3.0 8.0 0.00 0.00 0.00 45 1019.4
20260502150706 55 259 2.0 9.0 0.00 0.00 0.00 50 1019.4
20260502130707 42 170 1.0 3.0 0.00 0.00 0.00 70 1020.1
20260502130207 41 169 2.0 3.0 0.00 0.00 0.00 70 1020.1
20260502123206 38 203 1.0 3.0 0.00 0.00 0.00 78 1020.0
20260502122706 37 207 1.0 3.0 0.00 0.00 0.00 79 1020.0
20260502122207 37 290 0.0 2.0 0.00 0.00 0.00 80 1019.9
20260502121707 36 290 0.0 0.0 0.00 0.00 0.00 80 1019.9
20260502121207 36 290 0.0 0.0 0.00 0.00 0.00 80 1020.0
20260502120707 36 290 0.0 0.0 0.00 0.00 0.00 80 1019.9
20260502120207 36 290 0.0 0.0 0.00 0.00 0.00 79 1019.9
20260502115706 36 290 0.0 0.0 0.00 0.00 0.00 80 1019.9
20260502115206 35 290 0.0 1.0 0.00 0.00 0.00 80 1019.8
20260502114706 35 290 1.0 2.0 0.00 0.00 0.00 80 1019.8
20260502114206 35 293 1.0 3.0 0.00 0.00 0.00 80 1019.8
20260502113706 35 210 0.0 2.0 0.00 0.00 0.00 79 1019.8
20260502113206 35 210 0.0 0.0 0.00 0.00 0.00 79 1019.8
20260502112706 35 210 0.0 1.0 0.00 0.00 0.00 78 1019.7
20260502112206 35 210 0.0 0.0 0.00 0.00 0.00 78 1019.7
20260502111706 35 210 0.0 0.0 0.00 0.00 0.00 77 1019.7
20260502111207 35 210 0.0 0.0 0.00 0.00 0.00 76 1019.6
20260502110707 36 210 0.0 0.0 0.00 0.00 0.00 76 1019.6
20260502110206 36 210 0.0 0.0 0.00 0.00 0.00 75 1019.6
20260502105706 36 210 0.0 0.0 0.00 0.00 0.00 75 1019.6
20260502105206 36 210 0.0 0.0 0.00 0.00 0.00 75 1019.6
20260502104706 36 210 0.0 0.0 0.00 0.00 0.00 74 1019.7
20260502104207 36 210 0.0 2.0 0.00 0.00 0.00 74 1019.7
20260502103206 37 210 0.0 2.0 0.00 0.00 0.00 73 1019.6
20260502102706 37 210 0.0 0.0 0.00 0.00 0.00 73 1019.6
20260502101207 37 210 0.0 1.0 0.00 0.00 0.00 71 1019.6
20260502100706 37 210 0.0 1.0 0.00 0.00 0.00 71 1019.6
20260502100206 37 210 0.0 0.0 0.00 0.00 0.00 71 1019.6
20260502091207 37 216 1.0 2.0 0.00 0.00 0.00 72 1019.5
20260502090707 37 222 1.0 3.0 0.00 0.00 0.00 72 1019.5
20260502090207 37 267 1.0 2.0 0.00 0.00 0.00 72 1019.5
20260502070705 39 267 0.0 1.0 0.00 0.00 0.00 72 1019.8
20260502070205 39 267 0.0 1.0 0.00 0.00 0.00 71 1019.8
20260502065704 39 267 0.0 0.0 0.00 0.00 0.00 71 1019.8
20260502065206 39 267 0.0 0.0 0.00 0.00 0.00 71 1019.8
20260502064705 39 267 0.0 0.0 0.00 0.00 0.00 70 1019.9
20260502064204 39 267 0.0 0.0 0.00 0.00 0.00 70 1019.9
20260502063704 39 267 0.0 1.0 0.00 0.00 0.00 70 1019.9
20260502062705 39 267 0.0 0.0 0.00 0.00 0.00 70 1019.9
20260502062205 39 267 0.0 0.0 0.00 0.00 0.00 70 1019.9
20260502061704 39 267 0.0 0.0 0.00 0.00 0.00 70 1019.8
20260502061204 39 267 0.0 0.0 0.00 0.00 0.00 70 1019.9
20260502060705 39 267 0.0 0.0 0.00 0.00 0.00 70 1019.9
20260502060204 39 267 0.0 0.0 0.00 0.00 0.00 70 1019.9
20260502055704 39 267 0.0 0.0 0.00 0.00 0.00 69 1019.9
20260502055205 39 267 0.0 0.0 0.00 0.00 0.00 69 1019.9
20260502054705 39 267 0.0 0.0 0.00 0.00 0.00 69 1020.0
20260502054205 39 267 0.0 0.0 0.00 0.00 0.00 69 1020.0
20260502053705 39 267 0.0 0.0 0.00 0.00 0.00 69 1020.0
20260502053205 39 267 0.0 0.0 0.00 0.00 0.00 69 1020.0
20260502052704 40 267 0.0 0.0 0.00 0.00 0.00 69 1019.9
20260502052205 40 267 0.0 0.0 0.00 0.00 0.00 68 1019.9
20260502051705 40 267 0.0 0.0 0.00 0.00 0.00 68 1019.9
20260502050704 40 267 0.0 0.0 0.00 0.00 0.00 67 1019.9
20260502050205 40 267 0.0 0.0 0.00 0.00 0.00 66 1019.9
20260502045205 40 267 0.0 0.0 0.00 0.00 0.00 66 1019.8
20260502044705 40 267 0.0 0.0 0.00 0.00 0.00 65 1019.8
20260502044205 40 267 0.0 0.0 0.00 0.00 0.00 65 1019.8
20260502043705 40 267 0.0 0.0 0.00 0.00 0.00 64 1019.8
20260502043205 40 267 0.0 0.0 0.00 0.00 0.00 64 1019.8
20260502042205 41 267 0.0 0.0 0.00 0.00 0.00 62 1019.8
20260502041705 41 267 0.0 0.0 0.00 0.00 0.00 62 1019.8
20260502040704 41 267 0.0 0.0 0.00 0.00 0.00 61 1019.8
20260502040206 42 267 0.0 0.0 0.00 0.00 0.00 60 1019.8
20260502035705 42 267 0.0 0.0 0.00 0.00 0.00 60 1019.8
20260502035205 42 267 0.0 0.0 0.00 0.00 0.00 59 1019.8
20260502034705 42 267 0.0 0.0 0.00 0.00 0.00 59 1019.8
20260502034205 42 267 0.0 1.0 0.00 0.00 0.00 57 1019.9
20260502033705 43 267 0.0 0.0 0.00 0.00 0.00 58 1019.9
20260502033205 43 267 0.0 0.0 0.00 0.00 0.00 57 1019.9
20260502032705 43 267 0.0 0.0 0.00 0.00 0.00 56 1019.9
20260502032206 43 267 0.0 0.0 0.00 0.00 0.00 55 1020.0
20260502031705 43 267 0.0 0.0 0.00 0.00 0.00 55 1019.9
20260502030705 43 267 0.0 0.0 0.00 0.00 0.00 54 1019.9
20260502030205 44 267 0.0 0.0 0.00 0.00 0.00 53 1019.9
20260502025204 44 267 0.0 0.0 0.00 0.00 0.00 52 1019.9
20260502024705 45 267 0.0 0.0 0.00 0.00 0.00 51 1019.9
20260502024205 45 267 0.0 0.0 0.00 0.00 0.00 50 1019.9
20260502023205 45 267 0.0 0.0 0.00 0.00 0.00 49 1019.8
20260502022706 46 267 0.0 0.0 0.00 0.00 0.00 48 1019.8
20260502021705 47 267 0.0 0.0 0.00 0.00 0.00 46 1019.8
20260502021205 47 267 0.0 0.0 0.00 0.00 0.00 45 1019.8
20260502020705 48 267 0.0 0.0 0.00 0.00 0.00 44 1019.7
20260502020205 48 267 0.0 0.0 0.00 0.00 0.00 42 1019.6
20260502015706 48 267 0.0 0.0 0.00 0.00 0.00 41 1019.6
20260502015205 49 267 1.0 2.0 0.00 0.00 0.00 41 1019.5
20260502014705 49 267 0.0 1.0 0.00 0.00 0.00 39 1019.5
20260502013705 50 267 0.0 2.0 0.00 0.00 0.00 39 1019.3
20260502013205 50 267 1.0 3.0 0.00 0.00 0.00 38 1019.3
20260502012705 50 266 2.0 3.0 0.00 0.00 0.00 38 1019.3
20260502012205 50 291 1.0 3.0 0.00 0.00 0.00 37 1019.3
20260502011705 51 282 1.0 3.0 0.00 0.00 0.00 38 1019.3
20260502011206 51 288 2.0 6.0 0.00 0.00 0.00 37 1019.2
20260502010705 51 288 1.0 3.0 0.00 0.00 0.00 37 1019.2
20260502010206 51 279 3.0 5.0 0.00 0.00 0.00 36 1019.2
20260502005707 51 271 2.0 8.0 0.00 0.00 0.00 35 1019.2
20260502005205 52 281 4.0 9.0 0.00 0.00 0.00 36 1019.2
20260502004205 52 343 3.0 5.0 0.00 0.00 0.00 33 1019.2
20260502003705 53 343 3.0 6.0 0.00 0.00 0.00 34 1019.2
20260502002706 54 316 2.0 5.0 0.00 0.00 0.00 33 1019.2
20260502001206 53 8 2.0 3.0 0.00 0.00 0.00 35 1019.1
20260502000706 53 340 1.0 3.0 0.00 0.00 0.00 35 1019.1
20260502000206 53 23 2.0 3.0 0.00 0.00 0.00 35 1019.1
20260501235705 53 293 5.0 9.0 0.00 0.00 0.00 35 1019.1
20260501235206 52 0 2.0 7.0 0.00 0.00 0.00 37 1019.2
20260501234706 52 289 3.0 7.0 0.00 0.00 0.00 35 1019.2
20260501234206 51 270 3.0 7.0 0.00 0.00 0.00 35 1019.1
20260501233706 51 309 4.0 9.0 0.00 0.00 0.00 37 1019.1
20260501233206 51 320 5.0 9.0 0.00 0.00 0.00 36 1019.2
20260501232705 52 288 5.0 9.0 0.00 0.00 0.00 35 1019.1
20260501232205 52 313 5.0 10.0 0.00 0.00 0.00 35 1019.1
20260501231706 53 314 5.0 10.0 0.00 0.00 0.00 34 1019.1
20260501231205 53 267 3.0 9.0 0.00 0.00 0.00 34 1019.1
20260501230705 53 306 5.0 8.0 0.00 0.00 0.00 34 1019.2
20260501230205 53 283 3.0 8.0 0.00 0.00 0.00 35 1019.1
20260501225205 52 321 5.0 9.0 0.00 0.00 0.00 34 1019.2
20260501224706 52 313 3.0 10.0 0.00 0.00 0.00 35 1019.2
20260501224205 53 297 6.0 12.0 0.00 0.00 0.00 33 1019.2
20260501223705 54 295 1.0 9.0 0.00 0.00 0.00 32 1019.2